Location: *
(41.7492°S, 135.4150°W)
Time: 10:17:00
(UTC+00:00)

Envisat - Pass Details

Date: 23 January 2022
Orbit: 764 x 765 km, 98.2° (Epoch: 25 May)

Event Time Altitude Azimuth Distance (km) Brightness Sun altitude
Rises 13:13:40 0° 7° (N) 3,225 6.0 -7.5°
Reaches altitude 10° 13:15:58 10° 5° (N) 2,307 5.2 -7.2°
Maximum altitude 13:21:02 67° 282° (WNW) 838 3.0 -6.4°
Drops below altitude 10° 13:26:11 10° 198° (SSW) 2,339 5.7 -5.6°
Sets 13:28:32 0° 195° (SSW) 3,273 6.5 -5.2°
